Paducah, KY

7:18 AM CDT on September 26, 2017 (GMT -0500)
Barkley Regional

Weather History for KPAH - August, 2014

Change the Weather History Date:

Friday, August 15, 2014

  Actual Average Record
Temperature  
Mean Temperature 75 °F 78 °F  
Max Temperature 89 °F 89 °F 103 °F (1954)
Min Temperature 60 °F 67 °F 49 °F (2004)
Degree Days  
Heating Degree Days 0 0  
Month to date heating degree days 0 0  
Since 1 June heating degree days 0 4  
Since 1 July heating degree days 0 0  
Cooling Degree Days 10 13  
Month to date cooling degree days 183 196  
Year to date cooling degree days 1182 1119  
Since 1 June cooling degree days 904 947  
Growing Degree Days 24 (Base 50)    
Moisture  
Dew Point 62 °F    
Average Humidity 65    
Maximum Humidity 90    
Minimum Humidity 40    
Precipitation  
Precipitation 0.00 in 0.08 in 1.17 in (1966)
Month to date precipitation 1.62 1.42  
Year to date precipitation 30.54 31.14  
Snow  
Snow 0.00 in 0.00 in 0.00 in (2002)
Month to date snowfall 0.0 0.0  
Since 1 June snowfall 0.0 0.0  
Since 1 July snowfall 0.0 0.0  
Snow Depth 0.00 in    
Sea Level Pressure  
Sea Level Pressure 30.01 in    
Wind  
Wind Speed 2 mph (West)    
Max Wind Speed 8 mph    
Max Gust Speed 14 mph    
Visibility 9 miles    
Events      
T = Trace of Precipitation, MM = Missing Value Source: NWS Daily Summary

Daily Weather History Graph

Daily Weather History Graph

Search for Another Location

Airport or City:

Trip Planner

Search our weather history database for the weather conditions in past years. The results will help you decide how hot, cold, wet, or windy it might be!

Date:

Astronomy

Aug. 15, 2014 Rise Set
Actual Time 6:11 AM CDT 7:46 PM CDT
Civil Twilight 5:44 AM CDT 8:14 PM CDT
Nautical Twilight 5:10 AM CDT 8:47 PM CDT
Astronomical Twilight 4:35 AM CDT 9:22 PM CDT
Moon 10:58 PM CDT (8/15) 11:45 AM CDT (8/15)
Length of Visible Light 14h 30m
Length of Day
13h 34m
Waning Gibbous, 69% of the Moon is Illuminated
Aug 15
Waning Gibbous
Aug 17
Last Quarter
Aug 25
New
Sep 2
First Quarter
Sep 8
Full

Hourly Weather History & Observations

Time (CDT) Temp. Heat Index Dew Point Humidity Pressure Visibility Wind Dir Wind Speed Gust Speed Precip Events Conditions
12:53 AM 64.0 °F - 61.0 °F 90% 30.02 in 10.0 mi Calm Calm - N/A   Clear
1:53 AM 64.9 °F - 61.0 °F 87% 30.02 in 10.0 mi Calm Calm - N/A   Clear
2:53 AM 62.1 °F - 59.0 °F 90% 30.01 in 6.0 mi Calm Calm - N/A   Clear
3:53 AM 62.1 °F - 59.0 °F 90% 30.01 in 7.0 mi Calm Calm - N/A   Clear
4:53 AM 61.0 °F - 57.0 °F 87% 30.01 in 8.0 mi Calm Calm - N/A   Clear
5:53 AM 60.1 °F - 57.9 °F 93% 30.03 in 3.0 mi SW 3.5 mph - N/A   Clear
6:53 AM 62.1 °F - 59.0 °F 90% 30.04 in 5.0 mi Calm Calm - N/A   Clear
7:53 AM 71.1 °F - 64.9 °F 81% 30.06 in 8.0 mi Calm Calm - N/A   Clear
8:53 AM 77.0 °F - 64.9 °F 66% 30.06 in 10.0 mi West 3.5 mph - N/A   Clear
9:53 AM 80.1 °F 82.1 °F 66.0 °F 62% 30.06 in 10.0 mi Calm Calm - N/A   Clear
10:53 AM 82.9 °F 84.4 °F 64.0 °F 53% 30.06 in 10.0 mi Variable 3.5 mph - N/A   Clear
11:53 AM 84.0 °F 84.5 °F 62.1 °F 47% 30.05 in 10.0 mi WSW 5.8 mph - N/A   Clear
12:53 PM 86.0 °F 86.3 °F 62.1 °F 44% 30.04 in 6.0 mi West 4.6 mph - N/A   Haze
1:53 PM 88.0 °F 88.7 °F 63.0 °F 43% 30.01 in 10.0 mi NNW 5.8 mph - N/A   Clear
2:53 PM 87.1 °F 87.5 °F 62.1 °F 43% 30.00 in 10.0 mi North - - N/A   Clear
3:53 PM 88.0 °F 87.6 °F 60.1 °F 39% 30.00 in 10.0 mi Calm Calm - N/A   Clear
4:53 PM 88.0 °F 87.9 °F 61.0 °F 40% 29.98 in 10.0 mi Calm Calm - N/A   Clear
5:53 PM 86.0 °F 86.8 °F 63.0 °F 46% 29.97 in 10.0 mi West 4.6 mph - N/A   Clear
6:53 PM 84.0 °F 86.3 °F 66.0 °F 55% 29.96 in 10.0 mi Calm Calm - N/A   Clear
7:53 PM 73.9 °F - 66.0 °F 76% 29.96 in 10.0 mi SSW 4.6 mph - N/A   Clear
8:53 PM 73.9 °F - 66.0 °F 76% 29.98 in 10.0 mi Calm Calm - N/A   Clear
9:53 PM 70.0 °F - 64.9 °F 84% 29.98 in 9.0 mi Calm Calm - N/A   Clear
10:53 PM 71.1 °F - 64.9 °F 81% 29.96 in 10.0 mi Calm Calm - N/A   Clear